AMOS-4

Last updated on Thu Oct 30 2025 00:02:49 GMT+0000 (Coordinated Universal Time)

1 39237U 13045A 25301.86442176 .00000017 00000+0 00000+0 0 9992 2 39237 0.0549 101.9263 0002599 155.3749 156.3660 1.00272891 44639
UTC large
Height (km)
Speed (km/s)
/
Latitude / Longitude
Inclination (degrees)
Orbital Period (minutes)
Azimuth
Elevation
Range (km)
Doppler Factor

Next 0 passes for location: London (51.5072 / 0.1276)

Sorry there are no passes over London.